Wind_Speed
30 30 30 29 26 24 22 21 20 19 19 19 19 18 17 17 17 18 17 17 17 17 17 17 17 17 18 18 17 17 16 16 16 17 17 17 16 16 16 15 15 16 17
34 33 32 30 28 25 24 23 23 22 21 21 21 20 19 18 17 17 17 17 17 18 18 19 20 20 21 20 20 20 18 17 17 18 18 18 18 17 16 15 15 15 16
35 33 32 32 29 27 26 26 25 24 23 23 22 21 20 18 18 17 18 18 19 19 20 22 23 23 23 23 22 22 20 19 19 19 18 19 20 19 18 16 15 14 14
31 32 32 31 30 28 27 28 28 27 26 25 23 22 21 20 19 18 18 19 20 21 22 23 24 25 25 25 25 25 23 22 21 21 20 20 20 21 20 18 16 14 14
28 30 30 30 30 30 30 29 29 28 27 24 23 22 20 20 19 19 20 21 22 23 24 25 25 25 26 26 27 26 25 24 23 21 21 20 20 21 21 20 18 16 14
26 27 29 30 31 32 32 31 29 27 26 23 21 21 21 21 21 21 22 23 24 24 25 25 25 25 25 25 27 28 28 26 24 23 21 21 20 20 22 22 20 18 16
25 26 28 28 31 33 34 31 27 26 23 21 20 20 20 21 21 22 23 24 25 25 25 24 24 23 23 24 25 27 28 27 26 24 22 21 21 21 23 23 22 21 19
24 25 26 26 27 28 28 27 24 22 20 18 18 19 20 21 22 23 23 24 24 23 23 23 22 22 22 22 23 24 25 26 26 24 23 22 20 21 23 24 25 24 22
22 24 24 24 22 21 20 20 18 16 15 16 18 19 21 22 22 22 22 21 21 21 21 21 21 20 20 20 20 21 22 22 23 22 23 23 21 21 23 25 26 25 24
21 23 22 21 19 17 16 14 12 14 15 17 19 20 21 21 21 20 20 19 19 19 19 19 19 19 19 19 18 18 18 18 18 19 19 20 21 22 23 24 26 27 27
20 20 20 18 16 14 13 13 14 15 17 18 20 20 21 21 20 20 20 19 19 19 19 18 18 18 18 17 17 17 17 17 17 18 18 18 19 21 22 25 27 28 29
14 15 15 13 12 12 12 14 15 17 18 19 20 21 22 22 21 21 20 20 21 20 20 19 18 18 18 17 17 17 17 16 17 17 16 17 18 20 21 23 27 29 30
10 11 11 11 10 11 14 16 17 18 19 20 21 22 23 22 21 21 21 21 21 21 20 19 18 18 18 18 18 18 18 18 18 17 17 17 17 18 19 21 24 27 29
9 10 12 13 13 14 16 17 18 19 21 22 22 23 23 22 20 19 20 20 20 20 19 19 19 19 19 19 19 19 19 19 19 18 18 18 18 19 19 19 21 25 28
8 10 12 13 13 14 16 18 19 20 22 22 22 23 22 21 19 18 19 19 19 19 19 18 18 18 19 19 19 19 19 20 20 20 19 19 18 19 20 20 21 23 26
7 9 11 12 13 13 15 17 17 19 21 22 22 20 20 18 17 17 18 18 19 19 19 19 19 19 19 20 20 20 21 21 21 21 20 20 20 20 20 21 21 22 24
5 7 8 9 9 11 12 14 15 16 18 19 19 18 18 17 16 17 19 19 20 20 19 19 19 19 19 19 20 20 21 21 21 22 22 22 21 20 20 21 21 21 22
2 1 2 4 6 8 9 10 12 13 15 16 17 18 18 18 18 19 19 20 20 20 20 19 19 19 19 19 19 20 21 21 21 21 21 22 22 21 21 21 21 21 22
3 3 3 3 4 5 7 9 11 13 14 16 17 18 18 19 19 19 19 20 20 20 20 19 19 19 19 19 20 20 20 21 21 21 21 22 22 22 22 22 22 22 22
4 4 4 5 6 8 9 11 13 14 16 17 18 19 19 19 20 19 19 19 19 20 20 20 20 20 20 20 20 21 21 22 22 22 22 23 23 23 23 23 22 22 22
6 6 7 8 9 11 12 13 15 16 17 18 18 19 19 19 19 19 19 19 19 19 19 19 20 20 20 20 21 22 22 22 22 23 23 23 24 24 24 23 23 23 23
7 8 9 11 12 13 14 15 16 17 18 18 19 19 18 18 18 18 18 18 18 19 19 19 19 20 20 22 22 22 23 23 23 23 23 24 24 23 23 23 24 24 24
8 10 12 13 14 15 15 16 17 17 18 18 18 18 17 17 17 17 17 17 18 18 19 19 19 19 20 21 21 21 21 22 23 23 23 22 23 23 23 22 23 23 24
9 11 13 15 15 15 16 16 17 17 17 17 16 16 16 16 16 16 17 17 17 17 18 18 18 18 19 19 19 20 20 21 22 23 23 22 22 22 22 22 22 22 23
10 12 14 15 15 16 16 17 17 17 16 16 15 15 14 14 15 15 15 15 16 16 16 16 16 16 16 15 15 16 16 18 19 20 21 21 21 21 21 21 21 21 22
12 13 14 15 16 16 17 17 17 17 16 15 14 14 13 13 13 13 13 14 14 14 14 13 14 13 12 11 10 10 10 12 14 15 16 17 18 18 19 20 20 20 21
Wind_Direction
279 282 284 284 282 282 281 279 276 273 271 271 271 271 272 273 274 277 277 272 273 276 277 276 280 279 282 284 284 282 281 275 269 264 259 252 246 248 253 255 250 243 236
278 278 279 280 278 278 279 277 276 274 273 273 274 274 274 273 273 274 276 274 274 275 275 276 276 276 277 276 276 277 276 271 266 263 261 256 247 244 248 252 251 244 235
273 273 274 274 274 273 274 274 274 274 272 272 272 274 275 274 273 274 275 276 275 275 275 275 275 275 273 270 270 271 268 264 261 260 260 259 252 245 243 245 246 243 236
266 265 268 265 265 265 265 266 268 270 270 272 273 275 276 276 276 275 275 276 277 277 277 276 276 274 271 268 268 267 263 261 257 256 258 259 253 246 241 239 238 236 233
261 261 259 257 255 254 254 255 259 263 265 269 273 276 276 278 278 279 279 280 280 279 278 277 275 273 270 267 266 263 259 257 254 254 257 257 253 244 237 236 235 232 229
253 253 252 249 247 247 249 251 253 256 259 264 270 274 275 277 279 280 281 282 282 280 279 277 275 272 269 266 262 260 257 253 251 250 253 253 250 242 235 233 231 230 226
246 247 245 243 244 243 244 246 249 251 255 262 269 272 275 277 279 281 281 282 281 280 279 277 275 272 268 266 264 259 257 253 250 248 248 248 248 243 236 231 230 227 225
240 238 235 236 240 239 240 243 246 251 257 263 268 271 274 277 279 281 282 282 280 279 277 276 273 270 268 267 267 262 258 255 247 244 244 243 248 245 236 233 230 227 225
237 234 232 232 231 235 237 240 245 254 262 265 268 272 275 278 280 281 281 281 280 278 276 274 272 269 268 267 268 264 259 254 249 245 243 242 243 242 238 234 230 226 225
235 230 228 221 220 220 227 234 245 255 261 266 270 274 278 280 281 281 282 282 282 280 278 275 272 270 269 267 267 265 261 256 252 249 247 244 241 241 240 235 231 228 226
236 232 229 227 220 213 221 233 243 255 263 270 275 279 282 282 280 281 282 284 283 282 279 276 272 270 268 267 265 262 260 256 252 251 249 248 247 245 242 237 233 230 228
247 245 240 233 215 215 227 235 245 256 264 272 277 282 285 285 283 282 283 285 283 281 279 277 273 269 267 265 263 260 258 255 254 253 253 253 251 245 243 240 234 231 229
257 253 255 245 237 234 234 242 251 259 268 274 278 283 284 282 281 281 283 285 284 282 279 276 273 270 267 264 262 260 258 256 255 255 255 254 252 246 245 244 236 233 231
256 254 257 248 245 247 246 250 257 264 272 277 278 281 282 276 276 279 284 286 286 284 281 278 275 272 268 264 261 260 258 257 257 256 256 256 254 249 247 247 244 238 235
264 262 260 253 255 257 257 260 263 268 274 278 279 280 280 279 278 283 287 288 288 288 285 282 279 275 270 266 263 261 258 256 256 256 256 256 253 249 246 248 249 245 241
263 266 267 266 265 265 267 271 273 274 275 278 281 286 292 289 290 296 294 294 293 290 287 285 282 279 274 269 266 263 260 257 255 254 254 254 254 252 250 249 250 249 245
273 270 273 278 274 273 274 276 276 278 281 284 291 297 301 300 299 300 298 296 294 291 288 285 282 280 276 271 266 263 261 258 255 253 252 252 252 252 251 249 248 248 245
328 305 288 287 284 281 285 281 285 287 288 291 294 297 299 301 301 300 299 296 295 294 291 287 282 279 275 271 267 264 260 256 253 253 252 252 252 251 251 250 249 248 246
42 36 15 348 327 310 301 296 295 296 297 297 298 299 301 302 301 300 299 297 296 296 294 291 286 281 275 271 267 263 259 256 254 253 253 253 253 253 252 251 250 249 247
39 22 3 346 332 322 316 309 305 303 303 303 303 302 302 303 302 301 301 300 299 298 296 292 288 284 278 273 268 264 260 256 255 254 253 252 253 253 253 253 253 252 251
18 6 354 343 335 328 322 316 312 309 307 306 305 305 304 304 303 302 302 301 300 299 297 293 289 286 281 278 272 266 260 257 255 254 252 251 252 252 252 252 252 253 252
10 357 347 340 335 332 327 322 318 314 311 308 307 306 305 304 303 303 303 301 301 301 299 296 292 288 284 280 275 270 263 258 255 254 253 252 252 252 252 252 252 251 252
1 351 345 341 338 336 332 328 324 320 316 312 310 308 307 307 306 305 305 303 303 303 303 300 296 292 288 283 276 270 264 259 256 253 253 253 251 251 252 252 251 250 250
358 351 346 343 342 341 340 337 333 329 324 319 314 311 310 310 310 309 308 307 307 308 307 304 301 299 294 287 279 272 262 257 254 251 251 249 249 250 251 251 251 251 251
357 352 349 348 348 347 346 343 339 335 331 326 322 320 318 317 317 316 315 314 315 314 313 311 310 306 303 295 284 275 265 256 252 251 249 249 249 250 250 252 252 252 253
357 356 355 354 353 352 350 348 346 344 342 339 335 333 331 330 328 326 325 324 324 325 325 324 323 321 317 311 297 278 267 258 253 251 250 248 248 249 250 251 252 253 255
Height
5857 5857 5857 5858 5860 5860 5860 5860 5860 5860 5859 5859 5858 5857 5857 5856 5855 5854 5853 5853 5852 5851 5850 5850 5849 5848 5847 5846 5845 5844 5843 5843 5843 5842 5843 5844 5846 5846 5847 5847 5848 5848 5849
5850 5850 5851 5851 5853 5854 5854 5854 5854 5854 5853 5853 5853 5852 5852 5851 5850 5849 5848 5847 5847 5846 5845 5844 5843 5843 5842 5841 5840 5839 5839 5839 5839 5838 5838 5839 5842 5843 5843 5844 5844 5845 5846
5842 5843 5843 5844 5846 5847 5847 5847 5847 5847 5847 5847 5847 5846 5846 5845 5845 5845 5844 5843 5842 5840 5839 5838 5837 5837 5836 5835 5834 5834 5834 5834 5834 5834 5834 5834 5836 5838 5840 5840 5841 5841 5842
5834 5835 5836 5837 5838 5839 5840 5840 5840 5840 5841 5841 5841 5841 5840 5840 5840 5839 5838 5837 5836 5835 5833 5832 5831 5830 5830 5829 5828 5828 5828 5828 5828 5829 5829 5830 5831 5833 5835 5836 5837 5838 5839
5825 5826 5827 5829 5830 5831 5832 5833 5833 5833 5834 5834 5835 5835 5834 5834 5834 5833 5832 5831 5830 5828 5827 5826 5825 5824 5823 5822 5822 5822 5821 5821 5822 5823 5824 5824 5826 5827 5830 5832 5833 5835 5835
5817 5818 5819 5820 5822 5823 5825 5825 5825 5827 5828 5829 5829 5829 5829 5829 5828 5827 5826 5825 5823 5822 5820 5819 5818 5817 5816 5816 5815 5815 5814 5814 5816 5817 5818 5819 5820 5822 5824 5827 5829 5831 5832
5809 5810 5811 5812 5813 5815 5817 5818 5819 5821 5823 5824 5824 5825 5824 5824 5823 5822 5820 5819 5817 5815 5814 5812 5811 5810 5810 5809 5808 5808 5808 5807 5809 5810 5812 5813 5815 5816 5819 5821 5824 5826 5829
5802 5802 5803 5804 5805 5808 5810 5812 5814 5816 5818 5819 5820 5820 5819 5819 5818 5816 5815 5813 5811 5809 5808 5806 5805 5804 5803 5802 5801 5801 5801 5801 5802 5803 5805 5807 5809 5810 5813 5816 5818 5821 5824
5796 5797 5797 5798 5799 5802 5805 5808 5810 5813 5814 5815 5815 5814 5814 5813 5812 5810 5809 5807 5805 5803 5802 5800 5799 5798 5797 5796 5795 5795 5794 5794 5795 5797 5799 5801 5802 5804 5806 5809 5812 5815 5818
5789 5791 5791 5791 5794 5798 5802 5804 5807 5808 5809 5809 5809 5808 5808 5807 5806 5805 5803 5801 5800 5798 5796 5795 5794 5793 5792 5791 5790 5790 5789 5789 5790 5791 5793 5794 5796 5798 5800 5803 5806 5809 5812
5785 5786 5787 5788 5791 5795 5799 5801 5802 5803 5803 5803 5802 5802 5801 5800 5800 5798 5797 5796 5794 5792 5791 5790 5789 5787 5787 5786 5785 5785 5785 5785 5786 5787 5788 5789 5790 5792 5793 5796 5799 5802 5806
5781 5782 5785 5786 5789 5793 5795 5797 5797 5797 5797 5797 5796 5796 5795 5794 5793 5792 5790 5789 5788 5786 5785 5784 5783 5782 5781 5781 5781 5781 5781 5781 5782 5782 5783 5784 5785 5786 5787 5789 5792 5795 5798
5778 5780 5783 5785 5787 5789 5791 5792 5792 5792 5791 5791 5790 5789 5788 5787 5786 5785 5784 5783 5782 5780 5779 5778 5777 5776 5776 5776 5775 5776 5776 5776 5777 5777 5778 5779 5779 5780 5782 5783 5785 5788 5791
5776 5778 5780 5782 5784 5786 5787 5787 5788 5787 5785 5784 5783 5782 5781 5779 5779 5778 5778 5777 5776 5774 5773 5772 5771 5770 5770 5770 5770 5770 5770 5771 5771 5772 5773 5774 5775 5775 5777 5778 5779 5782 5784
5774 5775 5777 5778 5779 5781 5782 5782 5782 5782 5780 5778 5777 5775 5774 5773 5773 5772 5771 5770 5770 5769 5767 5766 5765 5764 5764 5764 5764 5764 5765 5765 5766 5767 5767 5768 5769 5770 5772 5773 5774 5775 5777
5772 5773 5774 5774 5775 5776 5776 5776 5776 5776 5775 5773 5770 5769 5768 5767 5767 5766 5765 5764 5763 5763 5762 5761 5760 5759 5758 5758 5758 5758 5759 5759 5760 5761 5762 5763 5764 5765 5766 5767 5769 5770 5772
5771 5772 5772 5772 5772 5772 5772 5772 5772 5771 5770 5768 5766 5765 5763 5763 5762 5761 5760 5758 5757 5756 5755 5755 5754 5753 5752 5752 5752 5752 5753 5753 5754 5755 5756 5757 5758 5759 5760 5761 5763 5764 5765
5771 5771 5771 5771 5771 5770 5769 5769 5769 5768 5767 5765 5764 5762 5760 5759 5757 5756 5754 5753 5751 5750 5749 5748 5747 5747 5746 5746 5746 5746 5746 5747 5747 5748 5749 5750 5751 5753 5754 5755 5756 5758 5759
5772 5772 5771 5771 5770 5770 5769 5768 5767 5765 5764 5762 5760 5758 5756 5754 5753 5751 5749 5747 5745 5744 5742 5741 5740 5740 5739 5739 5739 5739 5740 5740 5741 5742 5743 5744 5745 5746 5747 5749 5750 5751 5753
5774 5773 5772 5771 5770 5769 5768 5766 5764 5763 5761 5758 5756 5754 5752 5750 5748 5746 5743 5741 5740 5738 5736 5735 5734 5733 5732 5732 5732 5732 5733 5734 5734 5735 5737 5738 5738 5740 5741 5742 5743 5745 5746
5774 5773 5772 5771 5769 5768 5766 5764 5762 5759 5757 5755 5752 5750 5748 5745 5743 5741 5738 5736 5734 5732 5731 5729 5727 5726 5725 5725 5725 5725 5725 5726 5727 5729 5730 5731 5732 5733 5735 5736 5737 5738 5740
5775 5774 5772 5770 5768 5766 5763 5761 5758 5756 5753 5751 5748 5746 5743 5741 5738 5736 5734 5731 5729 5727 5725 5723 5721 5720 5718 5717 5717 5717 5718 5719 5720 5721 5723 5724 5725 5727 5728 5729 5731 5732 5733
5775 5773 5771 5769 5767 5764 5761 5758 5755 5752 5749 5747 5744 5741 5739 5736 5734 5731 5729 5727 5724 5722 5720 5717 5715 5713 5712 5710 5709 5709 5710 5711 5712 5714 5715 5717 5719 5720 5722 5723 5724 5725 5727
5775 5773 5770 5768 5765 5762 5759 5756 5752 5749 5746 5743 5740 5738 5735 5732 5730 5727 5725 5722 5720 5717 5715 5712 5710 5707 5705 5703 5702 5702 5702 5703 5705 5706 5708 5710 5712 5714 5715 5717 5718 5719 5720
5775 5772 5770 5767 5764 5761 5757 5754 5750 5747 5743 5740 5737 5734 5731 5729 5726 5723 5721 5718 5716 5713 5710 5708 5705 5702 5700 5698 5696 5695 5695 5696 5698 5700 5702 5704 5706 5708 5709 5711 5712 5713 5714
5774 5772 5769 5766 5763 5760 5756 5752 5749 5745 5741 5738 5734 5731 5728 5726 5723 5720 5718 5715 5713 5710 5707 5704 5702 5699 5696 5694 5692 5691 5691 5692 5693 5695 5696 5698 5700 5702 5703 5705 5706 5707 5708